Location: Munkebjergskolens Observatorium
(55.3864°N, 10.3987°E)
Time: 04:09:06
(UTC+02:00)

CAS-6 - Pass Details

Date: 03 April 2023
Orbit: 610 x 632 km, 97.9° (Epoch: 31 May)

Event Time Altitude Azimuth Distance (km) Brightness Sun altitude
Exits shadow 22:36:00 38° 86° (E) 957 ? -20.2°
Maximum altitude 22:36:35 40° 65° (ENE) 923 ? -20.3°
Drops below altitude 10° 22:40:42 10° 356° (N) 2,018 ? -20.7°
Sets 22:43:00 0° 349° (N) 2,934 ? -20.9°
